N36BG SYCJ-SMJP

Flight info

Callsign N36BG
Flight time 1h 22m
Altitude 5500
Route SISEX G443 ITASI
Aircraft BE36/L-BDFGLORY/S

Departure

Time 2026-04-28 17:58
Airport Cheddi Jagan International Airport (SYCJ)

Arrival

Time 2026-04-28 19:21
Airport Johan Adolf Pengel International Airport (SMJP)
Time Latitude Longitude Altitude Speed Heading
2026-04-28 17:53 6.50028 -58.25763 80 ft 0 kts 187°
2026-04-28 17:55 6.50026 -58.25763 80 ft 2 kts 195°
2026-04-28 17:56 6.50035 -58.25794 80 ft 10 kts 303°
2026-04-28 17:56 6.50030 -58.25886 81 ft 18 kts 248°
2026-04-28 17:56 6.49978 -58.26020 81 ft 23 kts 248°
2026-04-28 17:56 6.49914 -58.26168 74 ft 15 kts 224°
2026-04-28 17:57 6.49883 -58.26183 77 ft 0 kts 181°
2026-04-28 17:57 6.49859 -58.26163 75 ft 10 kts 100°
2026-04-28 17:57 6.49859 -58.26012 78 ft 49 kts 91°
2026-04-28 17:57 6.49855 -58.25475 92 ft 97 kts 90°
2026-04-28 17:58 6.49858 -58.24785 329 ft 99 kts 90°
2026-04-28 17:58 6.49866 -58.24017 349 ft 118 kts 90°
2026-04-28 17:58 6.49873 -58.23210 627 ft 108 kts 90°
2026-04-28 17:58 6.49866 -58.22520 1169 ft 91 kts 105°
2026-04-28 17:59 6.49555 -58.21980 1546 ft 90 kts 122°
2026-04-28 17:59 6.49234 -58.21435 2032 ft 91 kts 122°
2026-04-28 17:59 6.48725 -58.21090 2450 ft 89 kts 159°
2026-04-28 17:59 6.48185 -58.20805 2899 ft 88 kts 141°
2026-04-28 18:00 6.47904 -58.20255 3311 ft 91 kts 113°
2026-04-28 18:00 6.47654 -58.19667 3749 ft 92 kts 114°
2026-04-28 18:00 6.47416 -58.19070 4098 ft 92 kts 113°
2026-04-28 18:00 6.47189 -58.18462 4404 ft 93 kts 111°
2026-04-28 18:01 6.46968 -58.17850 4708 ft 93 kts 111°
2026-04-28 18:01 6.46751 -58.17234 5048 ft 94 kts 111°
2026-04-28 18:01 6.46533 -58.16614 5404 ft 94 kts 111°
2026-04-28 18:01 6.46290 -58.15918 5504 ft 118 kts 111°
2026-04-28 18:02 6.46004 -58.15093 5514 ft 131 kts 110°
2026-04-28 18:02 6.45693 -58.14193 5509 ft 141 kts 110°
2026-04-28 18:02 6.45365 -58.13242 5510 ft 148 kts 110°
2026-04-28 18:02 6.45019 -58.12237 5505 ft 154 kts 110°
2026-04-28 18:03 6.44663 -58.11213 5506 ft 156 kts 110°
2026-04-28 18:03 6.44307 -58.10182 5508 ft 157 kts 110°
2026-04-28 18:03 6.43947 -58.09138 5507 ft 160 kts 110°
2026-04-28 18:03 6.43576 -58.08068 5504 ft 163 kts 110°
2026-04-28 18:04 6.43210 -58.07005 5507 ft 163 kts 110°
2026-04-28 18:04 6.42836 -58.05922 5501 ft 164 kts 110°
2026-04-28 18:04 6.42463 -58.04842 5499 ft 163 kts 110°
2026-04-28 18:04 6.42092 -58.03774 5498 ft 161 kts 110°
2026-04-28 18:05 6.41725 -58.02713 5499 ft 160 kts 110°
2026-04-28 18:05 6.41478 -58.01995 5503 ft 161 kts 110°
2026-04-28 18:05 6.40986 -58.00571 5505 ft 163 kts 110°
2026-04-28 18:05 6.40610 -57.99488 5502 ft 164 kts 110°
2026-04-28 18:06 6.40237 -57.98410 5499 ft 162 kts 110°
2026-04-28 18:06 6.39869 -57.97342 5498 ft 161 kts 110°
2026-04-28 18:06 6.39502 -57.96283 5503 ft 161 kts 110°
2026-04-28 18:06 6.39133 -57.95214 5499 ft 162 kts 110°
2026-04-28 18:07 6.38763 -57.94149 5497 ft 161 kts 110°
2026-04-28 18:07 6.38397 -57.93090 5498 ft 160 kts 110°
2026-04-28 18:07 6.38032 -57.92031 5497 ft 160 kts 110°
2026-04-28 18:07 6.37663 -57.90968 5505 ft 163 kts 110°
2026-04-28 18:08 6.37286 -57.89885 5500 ft 164 kts 110°
2026-04-28 18:08 6.36916 -57.88808 5499 ft 162 kts 110°
2026-04-28 18:08 6.36549 -57.87741 5497 ft 161 kts 110°
2026-04-28 18:08 6.36183 -57.86691 5501 ft 162 kts 110°
2026-04-28 18:09 6.35813 -57.85623 5499 ft 162 kts 110°
2026-04-28 18:09 6.35443 -57.84557 5497 ft 161 kts 110°
2026-04-28 18:09 6.35078 -57.83500 5497 ft 160 kts 110°
2026-04-28 18:09 6.34712 -57.82442 5502 ft 161 kts 110°
2026-04-28 18:10 6.34340 -57.81372 5505 ft 164 kts 110°
2026-04-28 18:10 6.33968 -57.80293 5499 ft 162 kts 110°
2026-04-28 18:10 6.33596 -57.79219 5503 ft 164 kts 110°
2026-04-28 18:10 6.33223 -57.78142 5499 ft 162 kts 110°
2026-04-28 18:11 6.32856 -57.77071 5498 ft 162 kts 109°
2026-04-28 18:11 6.32499 -57.76000 5500 ft 162 kts 109°
2026-04-28 18:11 6.32140 -57.74927 5502 ft 162 kts 109°
2026-04-28 18:11 6.31779 -57.73851 5504 ft 163 kts 109°
2026-04-28 18:12 6.31414 -57.72765 5508 ft 165 kts 109°
2026-04-28 18:12 6.31046 -57.71671 5500 ft 164 kts 109°
2026-04-28 18:12 6.30678 -57.70589 5501 ft 163 kts 110°
2026-04-28 18:12 6.30315 -57.69511 5502 ft 163 kts 109°
2026-04-28 18:13 6.29959 -57.68444 5498 ft 163 kts 109°
2026-04-28 18:13 6.29597 -57.67368 5501 ft 163 kts 109°
2026-04-28 18:13 6.29233 -57.66292 5499 ft 163 kts 109°
2026-04-28 18:13 6.28871 -57.65217 5501 ft 163 kts 109°
2026-04-28 18:14 6.28509 -57.64144 5497 ft 161 kts 109°
2026-04-28 18:14 6.28151 -57.63080 5503 ft 161 kts 109°
2026-04-28 18:14 6.27789 -57.62005 5498 ft 163 kts 109°
2026-04-28 18:14 6.27426 -57.60928 5498 ft 163 kts 109°
2026-04-28 18:15 6.27065 -57.59856 5501 ft 162 kts 109°
2026-04-28 18:15 6.26701 -57.58779 5504 ft 164 kts 109°
2026-04-28 18:15 6.26338 -57.57699 5498 ft 162 kts 109°
2026-04-28 18:15 6.25977 -57.56628 5497 ft 161 kts 109°
2026-04-28 18:16 6.25619 -57.55566 5500 ft 160 kts 109°
2026-04-28 18:16 6.25258 -57.54498 5501 ft 162 kts 109°
2026-04-28 18:16 6.24896 -57.53424 5498 ft 162 kts 109°
2026-04-28 18:16 6.24538 -57.52359 5498 ft 161 kts 109°
2026-04-28 18:17 6.24180 -57.51295 5501 ft 161 kts 109°
2026-04-28 18:17 6.23817 -57.50224 5499 ft 162 kts 109°
2026-04-28 18:17 6.23457 -57.49155 5501 ft 161 kts 109°
2026-04-28 18:17 6.23100 -57.48099 5501 ft 162 kts 109°
2026-04-28 18:18 6.22737 -57.47022 5504 ft 164 kts 109°
2026-04-28 18:18 6.22373 -57.45939 5501 ft 163 kts 109°
2026-04-28 18:18 6.22010 -57.44861 5501 ft 163 kts 109°
2026-04-28 18:18 6.21763 -57.44132 5498 ft 162 kts 109°
2026-04-28 18:19 6.21286 -57.42719 5498 ft 161 kts 109°
2026-04-28 18:19 6.20924 -57.41647 5500 ft 163 kts 109°
2026-04-28 18:19 6.20560 -57.40567 5505 ft 164 kts 109°
2026-04-28 18:19 6.20194 -57.39484 5503 ft 164 kts 109°
2026-04-28 18:20 6.19828 -57.38398 5504 ft 164 kts 109°
2026-04-28 18:20 6.19461 -57.37310 5502 ft 164 kts 109°
2026-04-28 18:20 6.19094 -57.36223 5499 ft 164 kts 109°
2026-04-28 18:20 6.18730 -57.35144 5502 ft 163 kts 109°
2026-04-28 18:21 6.18366 -57.34067 5498 ft 162 kts 109°
2026-04-28 18:21 6.18007 -57.33001 5497 ft 161 kts 109°
2026-04-28 18:21 6.17649 -57.31939 5497 ft 160 kts 109°
2026-04-28 18:21 6.17288 -57.30879 5500 ft 161 kts 110°
2026-04-28 18:22 6.16928 -57.29812 5498 ft 161 kts 109°
2026-04-28 18:22 6.16569 -57.28743 5498 ft 162 kts 109°
2026-04-28 18:22 6.16214 -57.27689 5500 ft 162 kts 109°
2026-04-28 18:22 6.15849 -57.26634 5405 ft 152 kts 107°
2026-04-28 18:23 6.15509 -57.25643 5421 ft 150 kts 107°
2026-04-28 18:23 6.15178 -57.24650 5415 ft 148 kts 106°
2026-04-28 18:23 6.14855 -57.23670 5412 ft 148 kts 106°
2026-04-28 18:23 6.14527 -57.22698 5418 ft 146 kts 107°
2026-04-28 18:24 6.14199 -57.21729 5419 ft 146 kts 106°
2026-04-28 18:24 6.13985 -57.21091 5421 ft 146 kts 107°
2026-04-28 18:24 6.13548 -57.19800 5423 ft 146 kts 107°
2026-04-28 18:24 6.13222 -57.18837 5418 ft 145 kts 107°
2026-04-28 18:25 6.12897 -57.17879 5419 ft 144 kts 107°
2026-04-28 18:25 6.12576 -57.16925 5416 ft 144 kts 107°
2026-04-28 18:25 6.12257 -57.15978 5417 ft 143 kts 107°
2026-04-28 18:26 6.11619 -57.14096 5417 ft 141 kts 107°
2026-04-28 18:26 6.11308 -57.13176 5417 ft 141 kts 107°
2026-04-28 18:26 6.10993 -57.12241 5415 ft 141 kts 107°
2026-04-28 18:26 6.10677 -57.11306 5414 ft 141 kts 107°
2026-04-28 18:27 6.10362 -57.10374 5413 ft 141 kts 107°
2026-04-28 18:27 6.10047 -57.09443 5416 ft 141 kts 107°
2026-04-28 18:27 6.09729 -57.08506 5416 ft 142 kts 107°
2026-04-28 18:27 6.09412 -57.07564 5415 ft 142 kts 107°
2026-04-28 18:28 6.09094 -57.06625 5416 ft 142 kts 107°
2026-04-28 18:28 6.08778 -57.05689 5414 ft 141 kts 107°
2026-04-28 18:28 6.08463 -57.04762 5416 ft 140 kts 107°
2026-04-28 18:28 6.08269 -57.04194 5417 ft 141 kts 107°
2026-04-28 18:29 6.08151 -57.03845 5415 ft 141 kts 107°
2026-04-28 18:29 6.07836 -57.02913 5415 ft 141 kts 107°
2026-04-28 18:29 6.07520 -57.01977 5417 ft 142 kts 107°
2026-04-28 18:29 6.07206 -57.01040 5414 ft 142 kts 107°
2026-04-28 18:30 6.06890 -57.00102 5413 ft 141 kts 108°
2026-04-28 18:30 6.06788 -56.99801 5414 ft 140 kts 108°
2026-04-28 18:30 6.06265 -56.98250 5414 ft 140 kts 107°
2026-04-28 18:30 6.05954 -56.97327 5414 ft 139 kts 107°
2026-04-28 18:31 6.05645 -56.96414 5416 ft 140 kts 107°
2026-04-28 18:31 6.05331 -56.95469 5417 ft 141 kts 106°
2026-04-28 18:31 6.05023 -56.94550 5415 ft 141 kts 107°
2026-04-28 18:31 6.04711 -56.93616 5416 ft 141 kts 107°
2026-04-28 18:32 6.04397 -56.92681 5420 ft 141 kts 107°
2026-04-28 18:32 6.04083 -56.91749 5414 ft 141 kts 107°
2026-04-28 18:32 6.03770 -56.90815 5416 ft 141 kts 107°
2026-04-28 18:32 6.03455 -56.89880 5416 ft 141 kts 107°
2026-04-28 18:33 6.03142 -56.88943 5418 ft 142 kts 107°
2026-04-28 18:33 6.02826 -56.88003 5419 ft 142 kts 107°
2026-04-28 18:33 6.02508 -56.87061 5418 ft 143 kts 107°
2026-04-28 18:33 6.02294 -56.86422 5420 ft 143 kts 107°
2026-04-28 18:34 6.01874 -56.85169 5415 ft 143 kts 107°
2026-04-28 18:34 6.01664 -56.84543 5419 ft 142 kts 107°
2026-04-28 18:34 6.01347 -56.83600 5419 ft 142 kts 107°
2026-04-28 18:34 6.01033 -56.82665 5419 ft 141 kts 107°
2026-04-28 18:35 6.00721 -56.81735 5416 ft 141 kts 106°
2026-04-28 18:35 6.00405 -56.80797 5418 ft 142 kts 106°
2026-04-28 18:35 6.00087 -56.79849 5420 ft 144 kts 106°
2026-04-28 18:35 5.99766 -56.78892 5419 ft 145 kts 106°
2026-04-28 18:36 5.99445 -56.77934 5421 ft 145 kts 107°
2026-04-28 18:36 5.99126 -56.76979 5420 ft 143 kts 107°
2026-04-28 18:36 5.98806 -56.76034 5420 ft 143 kts 107°
2026-04-28 18:36 5.98488 -56.75090 5417 ft 143 kts 106°
2026-04-28 18:37 5.98168 -56.74144 5418 ft 144 kts 106°
2026-04-28 18:37 5.97849 -56.73190 5418 ft 144 kts 106°
2026-04-28 18:37 5.97532 -56.72241 5419 ft 143 kts 107°
2026-04-28 18:37 5.97214 -56.71291 5417 ft 143 kts 107°
2026-04-28 18:38 5.96893 -56.70343 5418 ft 143 kts 106°
2026-04-28 18:38 5.96572 -56.69390 5421 ft 145 kts 106°
2026-04-28 18:38 5.96249 -56.68428 5422 ft 145 kts 106°
2026-04-28 18:38 5.95926 -56.67464 5422 ft 146 kts 107°
2026-04-28 18:39 5.95603 -56.66496 5420 ft 146 kts 107°
2026-04-28 18:39 5.95277 -56.65531 5418 ft 145 kts 107°
2026-04-28 18:39 5.94953 -56.64573 5419 ft 145 kts 107°
2026-04-28 18:39 5.94630 -56.63616 5418 ft 144 kts 106°
2026-04-28 18:40 5.94308 -56.62663 5417 ft 144 kts 106°
2026-04-28 18:40 5.93988 -56.61708 5418 ft 145 kts 106°
2026-04-28 18:40 5.93667 -56.60749 5415 ft 145 kts 106°
2026-04-28 18:40 5.93347 -56.59792 5416 ft 145 kts 107°
2026-04-28 18:41 5.93026 -56.58834 5415 ft 145 kts 107°
2026-04-28 18:41 5.92703 -56.57878 5415 ft 145 kts 107°
2026-04-28 18:41 5.92379 -56.56923 5418 ft 145 kts 106°
2026-04-28 18:41 5.92055 -56.55963 5415 ft 145 kts 106°
2026-04-28 18:42 5.91739 -56.55016 5415 ft 145 kts 107°
2026-04-28 18:42 5.91417 -56.54057 5414 ft 145 kts 107°
2026-04-28 18:42 5.91093 -56.53095 5421 ft 145 kts 107°
2026-04-28 18:42 5.90764 -56.52126 5423 ft 147 kts 107°
2026-04-28 18:43 5.90431 -56.51146 5419 ft 148 kts 106°
2026-04-28 18:43 5.90107 -56.50171 5415 ft 146 kts 106°
2026-04-28 18:43 5.89785 -56.49203 5417 ft 146 kts 107°
2026-04-28 18:43 5.89459 -56.48237 5416 ft 146 kts 107°
2026-04-28 18:44 5.89130 -56.47263 5421 ft 148 kts 107°
2026-04-28 18:44 5.88465 -56.45286 5427 ft 152 kts 107°
2026-04-28 18:44 5.88129 -56.44285 5420 ft 150 kts 107°
2026-04-28 18:45 5.87794 -56.43292 5426 ft 151 kts 107°
2026-04-28 18:45 5.87456 -56.42290 5425 ft 152 kts 107°
2026-04-28 18:45 5.87116 -56.41286 5417 ft 151 kts 107°
2026-04-28 18:45 5.86783 -56.40301 5423 ft 148 kts 107°
2026-04-28 18:46 5.86451 -56.39312 5426 ft 151 kts 107°
2026-04-28 18:46 5.86112 -56.38307 5423 ft 152 kts 107°
2026-04-28 18:46 5.85775 -56.37303 5426 ft 152 kts 107°
2026-04-28 18:46 5.85435 -56.36293 5425 ft 153 kts 107°
2026-04-28 18:47 5.85099 -56.35297 5425 ft 153 kts 107°
2026-04-28 18:47 5.84754 -56.34274 5425 ft 153 kts 107°
2026-04-28 18:47 5.84421 -56.33284 5421 ft 150 kts 107°
2026-04-28 18:47 5.84079 -56.32274 5427 ft 151 kts 107°
2026-04-28 18:48 5.83738 -56.31262 5423 ft 154 kts 107°
2026-04-28 18:48 5.83401 -56.30262 5419 ft 153 kts 106°
2026-04-28 18:48 5.83066 -56.29258 5422 ft 151 kts 107°
2026-04-28 18:48 5.82729 -56.28264 5415 ft 149 kts 107°
2026-04-28 18:49 5.82399 -56.27285 5416 ft 147 kts 107°
2026-04-28 18:49 5.82178 -56.26633 5416 ft 146 kts 106°
2026-04-28 18:49 5.81747 -56.25356 5432 ft 145 kts 106°
2026-04-28 18:49 5.81429 -56.24405 5494 ft 144 kts 106°
2026-04-28 18:50 5.81109 -56.23454 5492 ft 143 kts 106°
2026-04-28 18:50 5.80789 -56.22507 5491 ft 143 kts 107°
2026-04-28 18:50 5.80470 -56.21560 5493 ft 143 kts 107°
2026-04-28 18:50 5.80152 -56.20609 5492 ft 144 kts 106°
2026-04-28 18:51 5.79829 -56.19655 5493 ft 144 kts 107°
2026-04-28 18:51 5.79505 -56.18705 5490 ft 144 kts 107°
2026-04-28 18:51 5.79184 -56.17759 5494 ft 143 kts 107°
2026-04-28 18:51 5.78868 -56.16814 5493 ft 143 kts 107°
2026-04-28 18:52 5.78550 -56.15870 5494 ft 142 kts 107°
2026-04-28 18:52 5.78233 -56.14927 5494 ft 143 kts 107°
2026-04-28 18:52 5.77912 -56.13968 5495 ft 146 kts 107°
2026-04-28 18:52 5.77582 -56.13003 5494 ft 146 kts 107°
2026-04-28 18:53 5.77256 -56.12042 5489 ft 145 kts 107°
2026-04-28 18:53 5.76934 -56.11084 5494 ft 145 kts 107°
2026-04-28 18:53 5.76611 -56.10126 5502 ft 148 kts 107°
2026-04-28 18:53 5.76281 -56.09142 5493 ft 148 kts 107°
2026-04-28 18:54 5.75950 -56.08168 5498 ft 148 kts 106°
2026-04-28 18:54 5.75617 -56.07180 5499 ft 151 kts 107°
2026-04-28 18:54 5.75277 -56.06177 5499 ft 153 kts 106°
2026-04-28 18:54 5.74939 -56.05170 5497 ft 151 kts 107°
2026-04-28 18:55 5.74607 -56.04181 5499 ft 148 kts 107°
2026-04-28 18:55 5.74388 -56.03535 5496 ft 147 kts 107°
2026-04-28 18:55 5.73951 -56.02241 5493 ft 146 kts 107°
2026-04-28 18:55 5.73627 -56.01284 5494 ft 144 kts 107°
2026-04-28 18:56 5.73306 -56.00334 5492 ft 144 kts 107°
2026-04-28 18:56 5.72985 -55.99382 5493 ft 144 kts 107°
2026-04-28 18:56 5.72663 -55.98426 5491 ft 145 kts 107°
2026-04-28 18:56 5.72340 -55.97467 5492 ft 145 kts 107°
2026-04-28 18:57 5.72020 -55.96523 5493 ft 144 kts 107°
2026-04-28 18:57 5.71699 -55.95575 5491 ft 143 kts 107°
2026-04-28 18:57 5.71380 -55.94632 5493 ft 142 kts 107°
2026-04-28 18:57 5.71062 -55.93692 5491 ft 142 kts 107°
2026-04-28 18:58 5.70745 -55.92753 5493 ft 142 kts 107°
2026-04-28 18:58 5.70427 -55.91810 5492 ft 143 kts 107°
2026-04-28 18:58 5.70108 -55.90864 5495 ft 143 kts 107°
2026-04-28 18:58 5.69787 -55.89913 5494 ft 144 kts 107°
2026-04-28 18:59 5.69466 -55.88960 5495 ft 144 kts 107°
2026-04-28 18:59 5.69143 -55.88007 5494 ft 144 kts 107°
2026-04-28 18:59 5.68822 -55.87060 5493 ft 143 kts 107°
2026-04-28 18:59 5.68502 -55.86115 5495 ft 143 kts 107°
2026-04-28 19:00 5.68181 -55.85169 5494 ft 143 kts 107°
2026-04-28 19:00 5.67863 -55.84224 5495 ft 143 kts 107°
2026-04-28 19:00 5.67544 -55.83277 5495 ft 144 kts 107°
2026-04-28 19:00 5.67223 -55.82326 5495 ft 144 kts 107°
2026-04-28 19:01 5.66900 -55.81372 5495 ft 144 kts 107°
2026-04-28 19:01 5.66576 -55.80434 5496 ft 144 kts 107°
2026-04-28 19:01 5.66246 -55.79487 5494 ft 143 kts 107°
2026-04-28 19:01 5.65917 -55.78542 5495 ft 143 kts 107°
2026-04-28 19:02 5.65590 -55.77598 5494 ft 143 kts 107°
2026-04-28 19:02 5.65264 -55.76655 5495 ft 143 kts 107°
2026-04-28 19:02 5.64938 -55.75712 5490 ft 142 kts 107°
2026-04-28 19:02 5.64613 -55.74776 5492 ft 142 kts 107°
2026-04-28 19:03 5.64289 -55.73842 5491 ft 141 kts 107°
2026-04-28 19:03 5.63966 -55.72912 5493 ft 141 kts 107°
2026-04-28 19:03 5.63643 -55.71976 5504 ft 143 kts 107°
2026-04-28 19:03 5.63317 -55.71031 5495 ft 143 kts 108°
2026-04-28 19:04 5.62992 -55.70088 5489 ft 143 kts 108°
2026-04-28 19:04 5.62663 -55.69146 5496 ft 143 kts 108°
2026-04-28 19:04 5.62335 -55.68204 5496 ft 143 kts 107°
2026-04-28 19:04 5.62013 -55.67274 5488 ft 143 kts 107°
2026-04-28 19:05 5.61686 -55.66331 5496 ft 143 kts 107°
2026-04-28 19:05 5.61360 -55.65387 5492 ft 143 kts 107°
2026-04-28 19:05 5.61032 -55.64442 5494 ft 144 kts 107°
2026-04-28 19:05 5.60704 -55.63494 5495 ft 144 kts 107°
2026-04-28 19:06 5.60373 -55.62543 5497 ft 144 kts 107°
2026-04-28 19:06 5.60150 -55.61900 5491 ft 144 kts 107°
2026-04-28 19:06 5.59715 -55.60647 5495 ft 143 kts 107°
2026-04-28 19:06 5.59388 -55.59702 5492 ft 143 kts 107°
2026-04-28 19:07 5.59054 -55.58734 5366 ft 152 kts 107°
2026-04-28 19:07 5.58707 -55.57728 5166 ft 153 kts 107°
2026-04-28 19:07 5.58357 -55.56720 4960 ft 153 kts 108°
2026-04-28 19:07 5.58010 -55.55720 4764 ft 148 kts 108°
2026-04-28 19:08 5.57676 -55.54765 4563 ft 142 kts 108°
2026-04-28 19:08 5.57353 -55.53838 4375 ft 139 kts 107°
2026-04-28 19:08 5.57039 -55.52930 4195 ft 136 kts 107°
2026-04-28 19:08 5.56735 -55.52050 4015 ft 134 kts 107°
2026-04-28 19:09 5.56430 -55.51166 3839 ft 133 kts 108°
2026-04-28 19:09 5.56124 -55.50287 3664 ft 133 kts 107°
2026-04-28 19:09 5.55818 -55.49405 3483 ft 134 kts 108°
2026-04-28 19:09 5.55512 -55.48523 3306 ft 134 kts 108°
2026-04-28 19:10 5.55205 -55.47642 3128 ft 133 kts 107°
2026-04-28 19:10 5.54845 -55.46787 2987 ft 133 kts 119°
2026-04-28 19:10 5.54240 -55.46124 2981 ft 125 kts 131°
2026-04-28 19:10 5.53641 -55.45533 2975 ft 117 kts 129°
2026-04-28 19:11 5.53085 -55.44962 2974 ft 112 kts 129°
2026-04-28 19:11 5.52546 -55.44404 2942 ft 113 kts 128°
2026-04-28 19:11 5.51986 -55.43822 2886 ft 119 kts 129°
2026-04-28 19:11 5.51406 -55.43224 2819 ft 120 kts 129°
2026-04-28 19:12 5.50828 -55.42633 2740 ft 120 kts 129°
2026-04-28 19:12 5.50242 -55.42031 2661 ft 121 kts 129°
2026-04-28 19:12 5.49653 -55.41425 2582 ft 121 kts 129°
2026-04-28 19:12 5.49062 -55.40820 2502 ft 122 kts 129°
2026-04-28 19:13 5.48471 -55.40212 2417 ft 122 kts 129°
2026-04-28 19:13 5.47879 -55.39605 2337 ft 122 kts 129°
2026-04-28 19:13 5.47286 -55.38998 2253 ft 122 kts 129°
2026-04-28 19:13 5.46692 -55.38389 2172 ft 122 kts 129°
2026-04-28 19:14 5.46100 -55.37782 2085 ft 122 kts 128°
2026-04-28 19:14 5.45515 -55.37170 2010 ft 121 kts 124°
2026-04-28 19:14 5.45168 -55.36448 1981 ft 111 kts 98°
2026-04-28 19:14 5.45175 -55.35709 1965 ft 102 kts 86°
2026-04-28 19:15 5.45193 -55.34991 1971 ft 104 kts 85°
2026-04-28 19:15 5.45203 -55.34265 1964 ft 102 kts 89°
2026-04-28 19:15 5.45201 -55.33570 1968 ft 98 kts 87°
2026-04-28 19:15 5.45202 -55.33121 1964 ft 97 kts 87°
2026-04-28 19:16 5.45208 -55.32226 1983 ft 100 kts 88°
2026-04-28 19:16 5.45206 -55.31477 1978 ft 111 kts 88°
2026-04-28 19:16 5.45219 -55.30655 1948 ft 124 kts 87°
2026-04-28 19:16 5.45223 -55.29788 1793 ft 125 kts 89°
2026-04-28 19:17 5.45222 -55.28978 1642 ft 108 kts 87°
2026-04-28 19:17 5.45227 -55.28288 1518 ft 91 kts 86°
2026-04-28 19:17 5.45231 -55.27647 1396 ft 97 kts 85°
2026-04-28 19:17 5.45241 -55.26986 1283 ft 94 kts 86°
2026-04-28 19:18 5.45242 -55.26333 1157 ft 93 kts 87°
2026-04-28 19:18 5.45239 -55.25687 1038 ft 94 kts 87°
2026-04-28 19:18 5.45246 -55.25042 924 ft 88 kts 89°
2026-04-28 19:18 5.45253 -55.24453 831 ft 82 kts 89°
2026-04-28 19:19 5.45252 -55.23875 736 ft 84 kts 85°
2026-04-28 19:19 5.45256 -55.23290 637 ft 84 kts 88°
2026-04-28 19:19 5.45261 -55.22685 534 ft 89 kts 86°
2026-04-28 19:19 5.45262 -55.22063 423 ft 91 kts 90°
2026-04-28 19:20 5.45258 -55.21437 329 ft 89 kts 88°
2026-04-28 19:20 5.45282 -55.20804 180 ft 90 kts 89°
2026-04-28 19:20 5.45281 -55.20189 75 ft 85 kts 90°
2026-04-28 19:20 5.45279 -55.19649 61 ft 66 kts 85°
2026-04-28 19:21 5.45285 -55.19262 61 ft 45 kts 89°
2026-04-28 19:21 5.45285 -55.19001 60 ft 33 kts 90°
2026-04-28 19:21 5.45285 -55.18775 58 ft 32 kts 91°
2026-04-28 19:21 5.45314 -55.18687 58 ft 18 kts 251°
2026-04-28 19:22 5.45291 -55.18834 58 ft 25 kts 269°
2026-04-28 19:22 5.45289 -55.18891 59 ft 26 kts 269°
2026-04-28 19:22 5.45288 -55.19245 60 ft 34 kts 270°
2026-04-28 19:22 5.45285 -55.19488 62 ft 36 kts 269°
2026-04-28 19:23 5.45288 -55.19678 61 ft 19 kts 294°
2026-04-28 19:23 5.45360 -55.19733 61 ft 14 kts 352°
2026-04-28 19:23 5.45454 -55.19789 59 ft 21 kts 272°
2026-04-28 19:23 5.45448 -55.19926 59 ft 13 kts 285°
2026-04-28 19:24 5.45467 -55.19939 57 ft 5 kts 359°
2026-04-28 19:24 5.45484 -55.19939 59 ft 0 kts 358°
2026-04-28 19:24 5.45488 -55.19939 59 ft 3 kts 358°
2026-04-28 19:24 5.45494 -55.19939 59 ft 0 kts 358°